Satellite: NOAA-11 Catalog number: 19531 Epoch time: 12137.74835881 Element set: 0923 Inclination: 098.7310 deg RA of node: 223.5666 deg Eccentricity: 0.0010835 Arg of perigee: 317.9610 deg Mean anomaly: 042.0734 deg Mean motion: 14.14965416 rev/day Decay rate: -2.28e-06 rev/day^2 Epoch rev: 22006 Checksum: 289
Satellite: NOAA-12 Catalog number: 21263 Epoch time: 12137.88271352 Element set: 0422 Inclination: 098.7310 deg RA of node: 159.6932 deg Eccentricity: 0.0013058 Arg of perigee: 294.8609 deg Mean anomaly: 065.1212 deg Mean motion: 14.25493894 rev/day Decay rate: 5.2e-07 rev/day^2 Epoch rev: 09209 Checksum: 297
Satellite: MET-3/5 Catalog number: 21655 Epoch time: 12138.45793701 Element set: 411 Inclination: 082.5551 deg RA of node: 173.8964 deg Eccentricity: 0.0014054 Arg of perigee: 044.5554 deg Mean anomaly: 315.6695 deg Mean motion: 13.17037961 rev/day Decay rate: -7.2e-07 rev/day^2 Epoch rev: 99785 Checksum: 321
Satellite: MET-2/21 Catalog number: 22782 Epoch time: 12138.78542451 Element set: 419 Inclination: 082.5486 deg RA of node: 056.6337 deg Eccentricity: 0.0021036 Arg of perigee: 236.2762 deg Mean anomaly: 123.6390 deg Mean motion: 13.83684036 rev/day Decay rate: 4.7e-07 rev/day^2 Epoch rev: 94496 Checksum: 314
Satellite: OKEAN-4 Catalog number: 23317 Epoch time: 12138.88738489 Element set: 888 Inclination: 082.5406 deg RA of node: 059.5295 deg Eccentricity: 0.0023431 Arg of perigee: 090.8442 deg Mean anomaly: 269.5456 deg Mean motion: 14.83753339 rev/day Decay rate: 1.103e-05 rev/day^2 Epoch rev: 95031 Checksum: 329
Satellite: NOAA-14 Catalog number: 23455 Epoch time: 12137.91005176 Element set: 0906 Inclination: 098.8275 deg RA of node: 221.8009 deg Eccentricity: 0.0010264 Arg of perigee: 051.5528 deg Mean anomaly: 308.6560 deg Mean motion: 14.13897456 rev/day Decay rate: 1.17e-06 rev/day^2 Epoch rev: 89637 Checksum: 310
Satellite: NOAA-15 Catalog number: 25338 Epoch time: 12137.74242583 Element set: 0263 Inclination: 098.6878 deg RA of node: 124.9499 deg Eccentricity: 0.0010132 Arg of perigee: 195.2605 deg Mean anomaly: 164.8255 deg Mean motion: 14.25066914 rev/day Decay rate: 6.0e-07 rev/day^2 Epoch rev: 72837 Checksum: 319
Satellite: RESURS Catalog number: 25394 Epoch time: 12138.56160933 Element set: 88 Inclination: 098.3201 deg RA of node: 128.4150 deg Eccentricity: 0.0001680 Arg of perigee: 009.1631 deg Mean anomaly: 350.9580 deg Mean motion: 14.24286720 rev/day Decay rate: 1.8e-07 rev/day^2 Epoch rev: 72004 Checksum: 264
Satellite: FENGYUN1 Catalog number: 25730 Epoch time: 12138.90455549 Element set: 606 Inclination: 098.8440 deg RA of node: 098.4156 deg Eccentricity: 0.0020366 Arg of perigee: 088.5205 deg Mean anomaly: 271.8299 deg Mean motion: 14.09506379 rev/day Decay rate: 1.759e-05 rev/day^2 Epoch rev: 67034 Checksum: 329
Satellite: OKEAN-0 Catalog number: 25860 Epoch time: 12137.97055059 Element set: 0629 Inclination: 097.9329 deg RA of node: 101.2586 deg Eccentricity: 0.0001377 Arg of perigee: 047.2016 deg Mean anomaly: 312.9307 deg Mean motion: 14.74186345 rev/day Decay rate: 5.02e-06 rev/day^2 Epoch rev: 68997 Checksum: 316
Satellite: NOAA-16 Catalog number: 26536 Epoch time: 12137.73334931 Element set: 0748 Inclination: 099.0972 deg RA of node: 179.3662 deg Eccentricity: 0.0010818 Arg of perigee: 167.9506 deg Mean anomaly: 192.1918 deg Mean motion: 14.12738078 rev/day Decay rate: 3.94e-06 rev/day^2 Epoch rev: 60059 Checksum: 335
Satellite: NOAA-17 Catalog number: 27453 Epoch time: 12137.76437232 Element set: 0706 Inclination: 098.3387 deg RA of node: 166.3861 deg Eccentricity: 0.0010684 Arg of perigee: 247.1849 deg Mean anomaly: 112.8196 deg Mean motion: 14.24430773 rev/day Decay rate: 1.91e-06 rev/day^2 Epoch rev: 51428 Checksum: 317
Satellite: NOAA-18 Catalog number: 28654 Epoch time: 12137.80845704 Element set: 0181 Inclination: 099.0429 deg RA of node: 095.6389 deg Eccentricity: 0.0013395 Arg of perigee: 242.0741 deg Mean anomaly: 117.9082 deg Mean motion: 14.11647799 rev/day Decay rate: 1.74e-06 rev/day^2 Epoch rev: 36013 Checksum: 320
Satellite: NOAA-19 Catalog number: 33591 Epoch time: 12137.80934715 Element set: 0373 Inclination: 098.8624 deg RA of node: 077.9894 deg Eccentricity: 0.0014992 Arg of perigee: 108.5347 deg Mean anomaly: 251.7442 deg Mean motion: 14.11337245 rev/day Decay rate: 4.15e-06 rev/day^2 Epoch rev: 16858 Checksum: 333
/EX SB KEPS @ AMSAT $ORB12138.M Orbital Elements 12138.MISC
HR AMSAT ORBITAL ELEMENTS FOR MANNED AND MISCELLANEOUS SATELLITES FROM WA5QGD FORT WORTH,TX May 17, 2012 Send SUBSCRIBE KEPS/UNSUBSCRIBE KEPS to majordomo@amsat.org only BID: ORB12138.M TO ALL RADIO AMATEURS BT
Satellite: HUBBLE Catalog number: 20580 Epoch time: 12138.17053356 Element set: 2 Inclination: 028.4715 deg RA of node: 346.5126 deg Eccentricity: 0.0003476 Arg of perigee: 087.8872 deg Mean anomaly: 272.2114 deg Mean motion: 15.02470528 rev/day Decay rate: 1.743e-05 rev/day^2 Epoch rev: 1006 Checksum: 259
Satellite: ISS Catalog number: 25544 Epoch time: 12139.07006944 Element set: 573 Inclination: 051.6405 deg RA of node: 273.0039 deg Eccentricity: 0.0010581 Arg of perigee: 331.2861 deg Mean anomaly: 014.4487 deg Mean motion: 15.56174428 rev/day Decay rate: 1.1767e-04 rev/day^2 Epoch rev: 77331 Checksum: 286
Satellite: CO-58 Catalog number: 28895 Epoch time: 12137.63930815 Element set: 0177 Inclination: 097.9197 deg RA of node: 005.2925 deg Eccentricity: 0.0016688 Arg of perigee: 249.0655 deg Mean anomaly: 110.8793 deg Mean motion: 14.60604594 rev/day Decay rate: 6.87e-06 rev/day^2 Epoch rev: 34905 Checksum: 354
Satellite: FALCON Catalog number: 30776 Epoch time: 12138.92213943 Element set: 348 Inclination: 035.4311 deg RA of node: 101.6739 deg Eccentricity: 0.0001067 Arg of perigee: 108.7216 deg Mean anomaly: 251.3626 deg Mean motion: 15.07341586 rev/day Decay rate: 3.994e-05 rev/day^2 Epoch rev: 28568 Checksum: 296
Satellite: MAST Catalog number: 31126 Epoch time: 12137.98310156 Element set: 0469 Inclination: 097.8723 deg RA of node: 150.9085 deg Eccentricity: 0.0092841 Arg of perigee: 207.4965 deg Mean anomaly: 152.1314 deg Mean motion: 14.54135592 rev/day Decay rate: 4.85e-06 rev/day^2 Epoch rev: 26973 Checksum: 309
Satellite: CAPE1 Catalog number: 31130 Epoch time: 12138.47483255 Element set: 470 Inclination: 097.8821 deg RA of node: 147.7733 deg Eccentricity: 0.0100608 Arg of perigee: 218.9045 deg Mean anomaly: 140.4933 deg Mean motion: 14.52908422 rev/day Decay rate: 4.55e-06 rev/day^2 Epoch rev: 26931 Checksum: 289
Satellite: COMPASS Catalog number: 32787 Epoch time: 12138.25428180 Element set: 304 Inclination: 097.8029 deg RA of node: 200.2727 deg Eccentricity: 0.0015553 Arg of perigee: 157.9349 deg Mean anomaly: 202.2573 deg Mean motion: 14.83884612 rev/day Decay rate: 2.077e-05 rev/day^2 Epoch rev: 21922 Checksum: 297
Satellite: AAUSAT2 Catalog number: 32788 Epoch time: 12137.82603848 Element set: 294 Inclination: 097.8052 deg RA of node: 200.2177 deg Eccentricity: 0.0014840 Arg of perigee: 157.8724 deg Mean anomaly: 202.3115 deg Mean motion: 14.84197189 rev/day Decay rate: 2.486e-05 rev/day^2 Epoch rev: 21918 Checksum: 314
Satellite: DO-64 Catalog number: 32789 Epoch time: 12137.70221503 Element set: 310 Inclination: 097.8146 deg RA of node: 202.0003 deg Eccentricity: 0.0015162 Arg of perigee: 156.7658 deg Mean anomaly: 203.4211 deg Mean motion: 14.85599149 rev/day Decay rate: 3.714e-05 rev/day^2 Epoch rev: 21920 Checksum: 278
Satellite: CO-66 Catalog number: 32791 Epoch time: 12138.77155833 Element set: 295 Inclination: 097.8022 deg RA of node: 200.5435 deg Eccentricity: 0.0016162 Arg of perigee: 155.9419 deg Mean anomaly: 204.2500 deg Mean motion: 14.83323454 rev/day Decay rate: 1.389e-05 rev/day^2 Epoch rev: 21923 Checksum: 298
Satellite: RS-30 Catalog number: 32953 Epoch time: 12138.86537391 Element set: 785 Inclination: 082.4995 deg RA of node: 313.9969 deg Eccentricity: 0.0019188 Arg of perigee: 017.0832 deg Mean anomaly: 343.0890 deg Mean motion: 12.43023359 rev/day Decay rate: 1.0e-07 rev/day^2 Epoch rev: 18079 Checksum: 323
Satellite: TACSAT-3 Catalog number: 35001 Epoch time: 12121.72616188 Element set: 0001 Inclination: 040.4259 deg RA of node: 351.8840 deg Eccentricity: 0.0007146 Arg of perigee: 275.2650 deg Mean anomaly: 085.0693 deg Mean motion: 16.45157000 rev/day Decay rate: 1.5204951e-01 rev/day^2 Epoch rev: 16699 Checksum: 280
Satellite: PHARMSAT Catalog number: 35002 Epoch time: 12138.75789541 Element set: 899 Inclination: 040.4601 deg RA of node: 261.4225 deg Eccentricity: 0.0005974 Arg of perigee: 357.4042 deg Mean anomaly: 002.6759 deg Mean motion: 15.78476963 rev/day Decay rate: 1.04880e-03 rev/day^2 Epoch rev: 16950 Checksum: 317
Satellite: METEOR-M Catalog number: 35865 Epoch time: 12138.67900493 Element set: 416 Inclination: 098.6565 deg RA of node: 193.5723 deg Eccentricity: 0.0003022 Arg of perigee: 126.1821 deg Mean anomaly: 233.9635 deg Mean motion: 14.21861935 rev/day Decay rate: -8.0e-08 rev/day^2 Epoch rev: 13826 Checksum: 300
Satellite: RS-38 Catalog number: 35869 Epoch time: 12138.77500001 Element set: 425 Inclination: 098.6522 deg RA of node: 193.6674 deg Eccentricity: 0.0005097 Arg of perigee: 131.8122 deg Mean anomaly: 228.3490 deg Mean motion: 14.22069166 rev/day Decay rate: 1.5e-07 rev/day^2 Epoch rev: 13829 Checksum: 300
Satellite: JUGNU Catalog number: 37839 Epoch time: 12138.50179443 Element set: 150 Inclination: 019.9639 deg RA of node: 184.1285 deg Eccentricity: 0.0018699 Arg of perigee: 246.4524 deg Mean anomaly: 113.3882 deg Mean motion: 14.12052450 rev/day Decay rate: 6.20e-06 rev/day^2 Epoch rev: 3090 Checksum: 289
